This is the latest recevied weather packets stored in our database for station/object KG4LKY-5. If no packets are shown the sender has not sent any weather packets the latest 10 day(s).
| Time | Temp. | Humidity | Pressure | Rain* | Wind** | Luminosity | Snow |
|---|---|---|---|---|---|---|---|
| 1777886706 | 8.89° C | 94% | 1015.4 hPa | 0.51 mm | - | - | - |
| 1777886407 | 8.89° C | 96% | 1015.6 hPa | 0.51 mm | - | - | - |
| 1777886107 | 8.89° C | 97% | 1013.8 hPa | 0.51 mm | - | - | - |
| 1777885805 | 8.33° C | 100% | 1015.7 hPa | 0.51 mm | - | - | - |
| 1777885506 | 8.33° C | 100% | 1015.7 hPa | 0.51 mm | - | - | - |
| 1777885206 | 8.33° C | 100% | 1015.8 hPa | 0.51 mm | - | - | - |
| 1777884905 | 8.33° C | 100% | 1016 hPa | 0.51 mm | - | - | - |
| 1777884605 | 8.89° C | 100% | 1016.3 hPa | 0.51 mm | - | - | - |
| 1777884305 | 8.89° C | 100% | 1016.6 hPa | 0.51 mm | - | - | - |
| 1777884004 | 8.89° C | 100% | 1016.6 hPa | 0.51 mm | - | - | - |
| 1777883704 | 9.44° C | 77% | 1017.3 hPa | 0 mm | - | - | - |
| 1777883404 | 9.44° C | 87% | 1017.5 hPa | 0 mm | - | - | - |
| 1777883104 | 10° C | 81% | 1017.5 hPa | 0 mm | - | - | - |
| 1777882803 | 10° C | 70% | 1017.5 hPa | 0 mm | - | - | - |
| 1777882503 | 9.44° C | 71% | 1017.3 hPa | 0 mm | - | - | - |
| 1777882203 | 10° C | 72% | 1016.8 hPa | 0 mm | - | - | - |
| 1777881902 | 10° C | 69% | 1016.5 hPa | 0 mm | - | - | - |
| 1777881602 | 9.44° C | 67% | 1016.4 hPa | 0 mm | - | - | - |
| 1777881302 | 10° C | 72% | 1016.1 hPa | 0 mm | - | - | - |
| 1777881002 | 10° C | 70% | 1016.1 hPa | 0 mm | - | - | - |
| 1777880701 | 9.44° C | 70% | 1016 hPa | 0 mm | - | - | - |
| 1777880401 | 10° C | 69% | 1015.9 hPa | 0 mm | - | - | - |
| 1777880101 | 9.44° C | 75% | 1015.6 hPa | 0 mm | - | - | - |
| 1777879800 | 9.44° C | 76% | 1015.9 hPa | 0 mm | - | - | - |
| 1777879500 | 9.44° C | 76% | 1016 hPa | 0 mm | - | - | - |
* Rain since midnight (hover to see other rain measurements)
** Current wind speed in m/s (hover to see current wind gust speed)